Find Zi Yuan 1-02

NORAD ID: 28057 Int'l Des: 2003-049 Owner: ZZWYZ/INPE Country: CN operational
LEOCIRCULARRETROGRADESSO

現在のビュー

3D地球を読み込み中...

About Zi Yuan 1-02

Zi Yuan 1-02 (NORAD 28057) is a satellite launched Oct 21, 2003 by ZZWYZ/INPE of CN. It operates in LEO, CIRCULAR, RETROGRADE, SSO orbit with a mass of 1450.00 kg.

次回通過

Passes for default location (London). Set your location on the main map for personalized predictions.

高度履歴

Loading altitude history...

軌道要素

1 28057U 03049A 26194.51523647 .00000084 00000-0 43952-4 0 9992
2 28057 98.7570 166.8199 0002063 83.9304 276.2116 14.36754936190966
Epoch: Jul 13, 2026 • Age: 15 hours

現在のステータス

高度 780.7 km
遠地点 / 近地点 N/A
速度 7.47 km/s
衛星直下点 76.49°N, 139.15°E
打ち上げ日 Oct 21, 2003
運用期間 22.7 years
タイプ other

技術仕様

分類 Payload
質量 1450.00 kg
乾燥質量 1400.00 kg
総質量 1450.00 kg
長さ 1.80 m
直径 2.00 m
スパン 9.00 m
形状 Box + Pan
製造者 CAST/INPE
バスタイプ ZY
フェーズステータス In Orbit
所有者/国 ZZWYZ/INPE/CN

Most Searched